Regional Weather Roundup
Issued by NWS

Home | Current Version | Previous Version | Graphics & Text | Print | Product List | Glossary On
Versions: 1 2 3 4 5 6 7 8 9 10 11 12 13 14 15 16 17 18 19 20 21 22 23 24 25 26 27
000
ASUS45 KTFX 251110
RWRMT
MONTANA REGIONAL WEATHER ROUNDUP
NATIONAL WEATHER SERVICE GREAT FALLS MT
500 AM MDT THU AUG 25 2016

NOTE: "FAIR" INDICATES FEW OR NO CLOUDS BELOW 12000 FEET WITH NO
SIGNIFICANT WEATHER AND/OR OBSTRUCTIONS TO VISIBILITY.

MTZ001>007-043-251200-
WEST OF THE DIVIDE

CITY           SKY/WX    TMP DP  RH WIND       PRES   REMARKS
KALISPELL      CLEAR     41  37  86 VRB5      30.26S
MISSOULA       CLEAR     43  37  79 NW5       30.28S
BUTTE          CLEAR     34  28  79 S5        30.34S
MULLAN PASS    CLEAR     47  33  58 SE9       30.31F
DEER LODGE       N/A     36  30  80 CALM      30.35S
EUREKA           N/A     43  34  70 CALM      30.28S
HAMILTON         N/A     45  36  70 CALM      30.27R
LIBBY            N/A     43  36  75 CALM      30.27S
PLAINS           N/A     44  37  76 CALM      30.24S
THOMPSON FALLS   N/A     42  36  79 CALM      30.28S
$$

MTZ008-052>055-251200-
SOUTHWEST MONTANA

CITY           SKY/WX    TMP DP  RH WIND       PRES   REMARKS
BOZEMAN        CLEAR     41  36  82 S5        30.32F
DILLON         CLEAR     40  30  67 S6        30.31F
W YELLOWSTONE  PTCLDY    28  27  93 CALM      30.35S
ENNIS          CLEAR     36  30  80 SE5       30.36F
THREE FORKS      N/A     36  36 100 CALM      30.27F
TWIN BRIDGES     N/A     41  26  55 E1        30.26F
$$

MTZ009-010-012-014-046-048-049-054-251200-
EAST SLOPES AND CENTRAL MONTANA

CITY           SKY/WX    TMP DP  RH WIND       PRES   REMARKS
CUT BANK       CLEAR     37  34  89 W9        30.28F WCI  30
GREAT FALLS    CLEAR     40  36  86 SW10      30.29F
MALMSTROM AFB  CLEAR     43  40  88 SW6       30.29S
HELENA         CLEAR     44  35  70 CALM      30.30F
CHOTEAU          N/A     41  34  75 SW7       30.30F
CONRAD           N/A     37  36  96 CALM      30.27F
$$

MTZ011-013-016-021-045-047-050-051-251200-
NORTH CENTRAL MONTANA

CITY           SKY/WX    TMP DP  RH WIND       PRES   REMARKS
HAVRE          CLEAR     41  39  93 SW7       30.26F
LEWISTOWN      CLOUDY    41  37  86 SE6       30.30F
N BAR RANCH      N/A     41  36  81 CALM      30.32S
CHINOOK          N/A     45  43  93 CALM      30.26S
$$

MTZ017>020-022>027-061-062-251200-
NORTHEAST MONTANA

CITY           SKY/WX    TMP DP  RH WIND       PRES   REMARKS
GLASGOW        MOCLDY    50  43  77 W10       30.22F
JORDAN           N/A     48  41  76 W6        30.26S
SIDNEY         MOCLDY    53  46  77 NW14      30.19S
WOLF POINT     PTCLDY    52  49  89 CALM      30.22S
POPLAR           N/A     54  48  82 SW5       30.22S
SCOBEY           N/A     46  41  83 CALM      30.18S
$$

MTZ028>42-056>058-251200-
SOUTHCENTRAL AND SOUTHEAST MONTANA

CITY           SKY/WX    TMP DP  RH WIND       PRES   REMARKS
BAKER          MOCLDY    47  42  83 W12       30.24S
BILLINGS       CLOUDY    49  39  68 SW8       30.30S
LIVINGSTON     CLEAR     38  35  89 NW8       30.32S
MILES CITY     CLOUDY    49  44  83 W7        30.26F
EKALAKA          N/A     44  39  82 W3        30.21R
FORSYTH          N/A     48  43  81 SW5       30.27F
LAUREL           N/A     45  36  70 W2        30.26F
ROUNDUP          N/A     46  37  70 S7        30.19S
$$

REGIONAL REPORTS...DAKOTAS

CITY           SKY/WX    TMP DP  RH WIND       PRES   REMARKS
WILLISTON      CLOUDY    54  46  74 NW8       30.18R
MINOT          LGT RAIN  53  52  96 NW20      30.08R FOG
DICKINSON      PTCLDY    49  45  86 W12       30.15S
CROSBY         MOCLDY    50  48  93 W7        30.18R
WATFORD CITY   CLOUDY    50  48  93 NW13      30.17S
BISMARCK       CLOUDY    57  48  72 NW14G23   30.11R
GRAND FORKS    CLOUDY    60  54  80 W12       29.91R
FARGO          MOCLDY    56  51  84 SW10      29.99R
BUFFALO SD       N/A     50  46  86 NW15      30.17S
RAPID CITY     CLOUDY    55  40  56 N14       30.23S
$$

REGIONAL REPORTS...WYOMING/IDAHO/WASHINGTON

CITY           SKY/WX    TMP DP  RH WIND       PRES   REMARKS
GILLETTE       CLOUDY    48  41  76 W7        30.30F
SHERIDAN       CLOUDY    50  41  71 W7        30.31S
BUFFALO WY     CLOUDY    51  38  60 CALM      30.33F
CODY           CLOUDY    48  39  71 CALM      30.32F
YELLOWSTONE LA   N/A     29  29 100 CALM      30.38S
IDAHO FALLS    CLEAR     44  35  70 N9        30.23S
SALMON         CLEAR    N/A N/A N/A MISG        N/A
BOISE          CLEAR     60  32  34 SE9       30.10R
SPOKANE        CLEAR     61  39  44 NE5       30.18F
$$

REGIONAL REPORTS...ALBERTA

CITY           SKY/WX    TMP DP  RH WIND       PRES   REMARKS
EDMONTON       MOCLDY    55  52  88 W8        30.19R
CALGARY        LGT RAIN  52  45  76 NW15G21   30.27R
LETHBRIDGE     PTCLDY    43  39  87 SW8       30.25F
MEDICINE HAT   PTCLDY    46  45  93 SW10      30.22S
WATERTON GATE    N/A     43  37  81 S8          N/A
CARDSTON         N/A     39  34  81 S2          N/A
MILK RIVER       N/A     39  37  93 NW7         N/A
ONEFOUR          N/A     41  39  93 NW3         N/A
$$

REGIONAL REPORTS...SASKATCHEWAN

CITY           SKY/WX    TMP DP  RH WIND       PRES   REMARKS
SWIFT CURRENT  CLEAR     46  43  87 SW12      30.18F
REGINA         PTCLDY    41  41 100 W3        30.13F
SASKATOON      PTCLDY    43  43 100 SW3       30.13F
VAL MARIE        N/A     39  37  93 W1          N/A
ROCKGLEN         N/A     46  43  87 W6          N/A
$$




USA.gov is the U.S. government's official web portal to all federal, state and local government web resources and services.